| time (UTC) | temp F | wind direction | speed MPH | gust MPH | rain 1hr in | rain 24hr in | rain mn in | humidity % | barometer mb |
| 20260903190103 | 72 | 0.0 | 0.0 | 0.00 | 0.02 | 0.02 | 83 | 1014.4 | |
| 20260903184603 | 70 | 0.0 | 0.0 | 0.00 | 0.02 | 0.02 | 85 | 1014.6 | |
| 20260903183102 | 70 | 0.0 | 0.0 | 0.00 | 0.02 | 0.02 | 85 | 1014.6 | |
| 20260903181600 | 71 | 0.0 | 0.0 | 0.00 | 0.02 | 0.02 | 84 | 1014.6 | |
| 20260903180111 | 71 | 0.0 | 0.0 | 0.00 | 0.02 | 0.02 | 84 | 1014.4 | |
| 20260903174610 | 69 | 0.0 | 0.0 | 0.00 | 0.02 | 0.02 | 88 | 1014.6 | |
| 20260903173117 | 69 | 0.0 | 0.0 | 0.00 | 0.02 | 0.02 | 88 | 1014.7 | |
| 20260903171604 | 68 | 0.0 | 0.0 | 0.00 | 0.02 | 0.02 | 89 | 1014.9 | |
| 20260903170112 | 69 | 0.0 | 0.0 | 0.00 | 0.02 | 0.02 | 88 | 1015.0 | |
| 20260903164610 | 69 | 0.0 | 0.0 | 0.00 | 0.02 | 0.02 | 88 | 1015.1 | |
| 20260903163121 | 69 | 0.0 | 0.0 | 0.00 | 0.02 | 0.02 | 89 | 1015.0 | |
| 20260903161602 | 69 | 0.0 | 0.0 | 0.00 | 0.02 | 0.02 | 85 | 1015.0 | |
| 20260903160110 | 69 | 0.0 | 0.0 | 0.00 | 0.02 | 0.02 | 87 | 1014.9 | |
| 20260903154603 | 68 | 0.0 | 0.0 | 0.00 | 0.02 | 0.02 | 90 | 1015.1 | |
| 20260903153103 | 69 | 0.0 | 0.0 | 0.00 | 0.02 | 0.02 | 88 | 1015.2 | |
| 20260903151601 | 69 | 0.0 | 0.0 | 0.00 | 0.02 | 0.02 | 86 | 1015.0 | |
| 20260903150114 | 70 | 0.0 | 0.0 | 0.00 | 0.02 | 0.02 | 85 | 1015.0 | |
| 20260903144601 | 68 | 0.0 | 0.0 | 0.00 | 0.02 | 0.02 | 88 | 1015.2 | |
| 20260903143100 | 68 | 0.0 | 0.0 | 0.00 | 0.02 | 0.02 | 87 | 1015.3 | |
| 20260903141601 | 69 | 0.0 | 0.0 | 0.00 | 0.02 | 0.02 | 87 | 1015.4 | |
| 20260903140106 | 67 | 0.0 | 0.0 | 0.00 | 0.02 | 0.02 | 91 | 1015.4 | |
| 20260903134606 | 66 | 0.0 | 0.0 | 0.00 | 0.02 | 0.02 | 92 | 1015.2 | |
| 20260903133104 | 66 | 0.0 | 0.0 | 0.00 | 0.02 | 0.02 | 92 | 1015.4 | |
| 20260903131603 | 65 | 0.0 | 0.0 | 0.00 | 0.02 | 0.02 | 92 | 1015.5 | |
| 20260903130117 | 65 | 0.0 | 0.0 | 0.00 | 0.02 | 0.02 | 95 | 1015.4 | |
| 20260903124615 | 64 | 0.0 | 0.0 | 0.00 | 0.02 | 0.02 | 96 | 1015.5 | |
| 20260903123102 | 63 | 0.0 | 0.0 | 0.00 | 0.02 | 0.02 | 96 | 1015.6 | |
| 20260903121559 | 63 | 0.0 | 0.0 | 0.00 | 0.02 | 0.02 | 98 | 1015.7 | |
| 20260903120107 | 62 | 0.0 | 0.0 | 0.00 | 0.02 | 0.02 | 98 | 1015.6 | |
| 20260903114608 | 62 | 0.0 | 0.0 | 0.00 | 0.02 | 0.02 | 98 | 1015.8 | |
| 20260903113102 | 61 | 0.0 | 0.0 | 0.00 | 0.02 | 0.02 | 98 | 1015.8 | |
| 20260903111625 | 61 | 0.0 | 0.0 | 0.00 | 0.02 | 0.02 | 98 | 1015.9 | |
| 20260903110110 | 60 | 0.0 | 0.0 | 0.00 | 0.02 | 0.02 | 98 | 1015.8 | |
| 20260903104633 | 59 | 0.0 | 0.0 | 0.00 | 0.02 | 0.02 | 98 | 1015.8 | |
| 20260903103102 | 58 | 0.0 | 0.0 | 0.01 | 0.02 | 0.02 | 98 | 1015.8 | |
| 20260903101600 | 57 | 0.0 | 0.0 | 0.02 | 0.02 | 0.02 | 98 | 1015.6 | |
| 20260903100106 | 57 | 0.0 | 0.0 | 0.02 | 0.02 | 0.02 | 98 | 1015.8 | |
| 20260903094608 | 57 | 0.0 | 0.0 | 0.02 | 0.02 | 0.02 | 98 | 1015.7 | |
| 20260903093100 | 57 | 0.0 | 0.0 | 0.01 | 0.01 | 0.01 | 98 | 1015.9 | |
| 20260903091604 | 57 | 0.0 | 0.0 | 0.00 | 0.00 | 0.00 | 98 | 1015.9 | |
| 20260903090104 | 57 | 0.0 | 0.0 | 0.00 | 0.00 | 0.00 | 98 | 1016.0 | |
| 20260903084603 | 57 | 0.0 | 0.0 | 0.00 | 0.00 | 0.00 | 97 | 1016.1 | |
| 20260903083058 | 57 | 0.0 | 0.0 | 0.00 | 0.00 | 0.00 | 97 | 1016.3 | |
| 20260903081603 | 57 | 0.0 | 0.0 | 0.00 | 0.00 | 0.00 | 97 | 1016.4 | |
| 20260903080100 | 57 | 0.0 | 0.0 | 0.00 | 0.00 | 0.00 | 97 | 1016.3 | |
| 20260903074603 | 57 | 0.0 | 0.0 | 0.00 | 0.00 | 0.00 | 97 | 1016.4 | |
| 20260903073111 | 57 | 0.0 | 0.0 | 0.00 | 0.00 | 0.00 | 97 | 1016.5 | |
| 20260903071603 | 57 | 0.0 | 0.0 | 0.00 | 0.00 | 0.00 | 97 | 1016.5 | |
| 20260903070106 | 57 | 0.0 | 0.0 | 0.00 | 0.00 | 0.00 | 97 | 1016.5 | |
| 20260903064559 | 57 | 0.0 | 0.0 | 0.00 | 0.00 | 0.00 | 97 | 1016.7 | |
| 20260903063102 | 57 | 0.0 | 0.0 | 0.00 | 0.00 | 0.00 | 96 | 1016.8 | |
| 20260903061610 | 57 | 0.0 | 0.0 | 0.00 | 0.00 | 0.00 | 96 | 1017.2 | |
| 20260903054600 | 57 | 0.0 | 0.0 | 0.00 | 0.00 | 0.00 | 95 | 1017.5 | |
| 20260903053110 | 57 | 0.0 | 0.0 | 0.00 | 0.00 | 0.00 | 94 | 1017.8 | |
| 20260903051603 | 58 | 0.0 | 0.0 | 0.00 | 0.00 | 0.00 | 93 | 1018.1 | |
| 20260903050107 | 58 | 0.0 | 0.0 | 0.00 | 0.00 | 0.00 | 92 | 1018.0 | |
| 20260903044608 | 58 | 0.0 | 0.0 | 0.00 | 0.00 | 0.00 | 92 | 1018.0 | |
| 20260903043128 | 58 | 0.0 | 0.0 | 0.00 | 0.00 | 0.00 | 91 | 1017.7 | |
| 20260903041602 | 58 | 0.0 | 0.0 | 0.00 | 0.00 | 0.00 | 90 | 1017.8 | |
| 20260903040109 | 58 | 0.0 | 0.0 | 0.00 | 0.00 | 0.00 | 89 | 1018.3 | |
| 20260903034603 | 58 | 0.0 | 0.0 | 0.00 | 0.00 | 0.00 | 88 | 1018.4 | |
| 20260903033103 | 58 | 0.0 | 0.0 | 0.00 | 0.00 | 0.00 | 88 | 1018.5 | |
| 20260903031619 | 59 | 0.0 | 0.0 | 0.00 | 0.00 | 0.00 | 89 | 1018.6 | |
| 20260903030116 | 59 | 0.0 | 0.0 | 0.00 | 0.00 | 0.00 | 91 | 1018.8 | |
| 20260903024608 | 59 | 0.0 | 0.0 | 0.00 | 0.01 | 0.00 | 91 | 1018.8 | |
| 20260903023103 | 59 | 0.0 | 0.0 | 0.00 | 0.01 | 0.00 | 91 | 1019.1 | |
| 20260903021601 | 59 | 0.0 | 0.0 | 0.00 | 0.01 | 0.00 | 92 | 1019.3 | |
| 20260903020100 | 59 | 0.0 | 0.0 | 0.00 | 0.01 | 0.00 | 91 | 1019.4 | |
| 20260903014612 | 59 | 0.0 | 0.0 | 0.00 | 0.01 | 0.00 | 91 | 1019.8 | |
| 20260903013104 | 59 | 0.0 | 0.0 | 0.00 | 0.01 | 0.00 | 91 | 1020.1 | |
| 20260903011609 | 60 | 0.0 | 0.0 | 0.00 | 0.01 | 0.00 | 91 | 1019.9 | |
| 20260903010118 | 60 | 0.0 | 0.0 | 0.00 | 0.01 | 0.00 | 93 | 1019.9 | |
| 20260903004600 | 60 | 0.0 | 0.0 | 0.00 | 0.02 | 0.00 | 94 | 1019.9 | |
| 20260903003105 | 60 | 0.0 | 0.0 | 0.00 | 0.02 | 0.00 | 93 | 1019.7 | |
| 20260903001601 | 59 | 0.0 | 0.0 | 0.00 | 0.02 | 0.00 | 93 | 1019.2 | |
| 20260903000104 | 60 | 0.0 | 0.0 | 0.00 | 0.02 | 0.00 | 93 | 1019.2 | |
| 20260902234605 | 60 | 0.0 | 0.0 | 0.00 | 0.02 | 0.00 | 93 | 1019.7 | |
| 20260902233103 | 60 | 0.0 | 0.0 | 0.00 | 0.02 | 0.00 | 92 | 1019.9 | |
| 20260902231611 | 60 | 0.0 | 0.0 | 0.00 | 0.02 | 0.00 | 92 | 1020.1 | |
| 20260902230105 | 61 | 0.0 | 0.0 | 0.00 | 0.02 | 0.00 | 92 | 1020.6 | |
| 20260902224606 | 61 | 0.0 | 0.0 | 0.00 | 0.02 | 0.00 | 92 | 1020.8 | |
| 20260902223059 | 61 | 0.0 | 0.0 | 0.00 | 0.02 | 0.00 | 92 | 1021.0 | |
| 20260902221623 | 61 | 0.0 | 0.0 | 0.00 | 0.02 | 0.00 | 91 | 1021.1 | |
| 20260902220100 | 61 | 0.0 | 0.0 | 0.00 | 0.02 | 0.00 | 91 | 1021.1 | |
| 20260902214601 | 61 | 0.0 | 0.0 | 0.00 | 0.03 | 0.00 | 90 | 1021.3 | |
| 20260902213100 | 61 | 0.0 | 0.0 | 0.00 | 0.03 | 0.00 | 91 | 1021.2 | |
| 20260902211558 | 61 | 0.0 | 0.0 | 0.00 | 0.03 | 0.00 | 91 | 1021.3 | |
| 20260902204601 | 61 | 0.0 | 0.0 | 0.00 | 0.03 | 0.00 | 91 | 1021.1 | |
| 20260902203100 | 61 | 0.0 | 0.0 | 0.00 | 0.03 | 0.00 | 91 | 1021.4 | |
| 20260902201601 | 61 | 0.0 | 0.0 | 0.00 | 0.03 | 0.00 | 90 | 1021.0 | |
| 20260902194605 | 61 | 0.0 | 0.0 | 0.00 | 0.03 | 0.00 | 89 | 1021.7 | |
| 20260902193108 | 61 | 0.0 | 0.0 | 0.00 | 0.03 | 0.00 | 90 | 1021.6 | |
| 20260902191634 | 61 | 0.0 | 0.0 | 0.00 | 0.03 | 0.00 | 90 | 1021.7 |